Weather in Helsingborg

Sweden     56°02′54″N   12°41′50″E
temp.,
°C
wind,
m/s
gust,
m/s
humid.,
%
clouds,
%
prec.,
mm/h
press.,
hPa
HPBL,
m
18 january, mon
mon1801:00−1ssw4784100 0.1 1019376
04:00−1ssw5781100 0.0 1018418
07:00−1ssw588699 0.0 1017415
10:000ssw798991 0.0 1016525
13:000s689896 0.7 1014407
16:00+2s7109698 0.1 1012389
19:00+2sse799899 1.4 1010267
22:00+2ssw4698100 1.4 1009151
19 january, tue
tue1901:00+2wsw4797100 1.5 1008218
04:00+1sw3591100 0.1 1007159
07:00+2ssw489394 0.1 1005214
10:00+2ssw699691 0.1 1004374
13:00+2sse7119896 1.6 1001489
16:00+3sse71098100 2.1 998249
19:00+3s5898100 4.0 997196
22:00+3s4599100 1.9 99597
20 january, wed
wed2001:00+3s4699100 2.9 995114
04:00+4ssw61198100 1.8 992213
07:00+5ssw91695100 3.3 991382
10:00+5ssw91793100 0.9 990492
13:00+5ssw101892100 1.4 991496
16:00+6sw91692100 0.4 991356
19:00+5sw81592100 0.6 992372
22:00+5ssw81492100 0.0 992336
21 january, thu
thu2101:00+6ssw81481100 0.1 992368
04:00+5s91585100 0.0 991367
07:00+5s101787100 0.0 990436
10:00+6s111984100 0.1 987503
13:00+6s132178100 0.1 986704
16:00+5ssw8157367 0.6 988523
19:00+5ssw9177483 0.6 988633
22:00+4ssw9187775 0.0 988707
22 january, fri
fri2201:00+4ssw9168088 0.0 988563
04:00+3s81386100 0.0 987441
07:00+3s6993100 0.4 986334
10:00+3ssw5996100 0.8 986395
13:00+4sw71178100 0.9 987584
16:00+4ssw8147720 0.0 988609
19:00+3sw9167920 0.0 989823
22:00+3sw71386100 0.0 992474